Wind_Speed
16 15 14 14 15 12 10 9 8 7 6 6 6 6 6 6 6 6 5 5 5 5 4 4 4 3 3 4 4 4 4 5 5 4 4 4 4 4 3 3 3 3 3 2 2 3 3 3 3
15 14 14 15 13 8 8 7 7 7 7 7 6 6 7 6 6 5 5 5 5 5 4 4 4 3 3 3 3 4 4 4 4 4 4 4 4 4 4 4 3 2 3 3 2 2 2 2 3
14 13 15 14 9 8 7 7 7 7 7 8 7 6 6 6 6 6 5 5 5 5 5 5 5 4 3 3 3 3 3 4 3 3 3 4 3 3 3 3 2 2 2 2 2 2 2 3 3
15 16 16 13 8 7 7 7 7 7 7 8 8 7 6 6 6 6 6 6 6 5 5 5 5 4 5 4 2 3 3 3 4 3 3 3 3 3 2 2 2 2 1 2 2 2 3 3 4
15 16 15 11 7 7 7 7 7 7 8 8 7 7 7 6 6 5 6 6 6 6 5 5 5 5 5 4 3 2 2 2 3 3 3 3 2 2 2 1 1 1 1 1 2 2 3 4 3
14 15 13 9 7 7 7 7 7 8 8 8 7 7 6 7 6 6 6 6 6 6 5 5 5 5 4 4 3 3 2 1 1 2 2 2 2 2 2 1 1 1 1 1 1 2 3 3 3
14 14 10 7 6 6 6 6 6 7 7 8 7 7 7 7 7 7 7 7 6 6 6 5 5 5 4 3 3 3 2 2 2 1 1 1 1 1 1 1 1 1 0 0 1 2 1 1 1
14 11 9 6 6 7 7 7 6 7 7 7 7 7 7 7 7 7 7 7 7 7 7 6 6 6 5 4 4 3 2 2 2 2 0 0 1 0 0 1 0 1 1 1 1 1 2 1 2
11 10 8 6 6 7 6 7 8 8 8 8 7 7 7 7 7 7 7 6 6 7 8 7 6 5 5 5 4 3 2 2 2 2 2 1 0 0 1 1 1 0 0 1 1 1 1 1 1
8 8 7 6 6 6 7 7 7 7 7 8 8 8 7 7 8 8 7 7 7 7 7 7 7 6 6 5 4 3 3 3 2 2 2 1 1 1 1 2 1 1 0 0 1 1 1 1 1
7 6 6 6 6 6 7 8 8 8 8 9 9 9 9 8 8 8 8 7 7 7 6 7 6 6 6 6 5 4 4 4 4 3 2 2 2 1 1 1 2 2 1 1 1 1 1 1 2
5 4 5 5 5 6 7 7 7 8 9 9 10 10 9 9 9 9 8 8 8 7 7 7 6 6 6 6 6 5 5 5 4 3 2 3 3 3 3 3 3 3 3 2 2 2 2 2 2
5 4 5 6 6 6 6 7 8 8 9 11 11 11 10 9 9 10 9 9 9 8 7 8 7 7 7 7 6 6 6 6 4 4 3 3 3 4 4 4 3 3 3 3 3 3 3 3 3
3 4 6 6 6 6 6 7 8 8 10 11 12 11 11 10 10 9 9 9 10 9 8 8 7 7 7 7 6 7 7 6 5 5 4 4 4 4 5 5 4 4 4 4 4 4 4 4 4
2 3 5 6 6 6 7 8 9 9 10 11 12 12 12 11 11 10 10 10 9 10 9 8 8 8 8 8 7 7 7 6 6 5 4 5 5 5 5 5 4 4 4 5 5 5 5 5 5
3 4 4 5 7 7 8 9 10 10 10 11 12 12 12 12 11 10 9 9 9 10 10 9 8 8 8 8 8 8 7 7 6 6 5 5 6 6 5 5 5 5 4 5 5 5 6 6 6
1 4 4 4 6 8 8 8 10 11 11 11 12 12 12 12 11 10 10 9 10 10 10 10 9 9 9 9 9 9 8 8 7 6 6 6 6 7 6 6 6 6 6 6 6 6 7 7 8
1 2 4 5 6 5 7 8 10 11 12 13 12 12 12 12 11 11 10 10 9 10 10 11 10 10 10 10 10 10 9 9 9 8 7 7 7 7 8 8 7 7 7 7 7 7 8 9 9
4 5 4 5 5 6 7 8 10 12 12 13 13 12 12 11 11 11 11 11 10 10 10 10 10 10 11 11 11 10 10 9 9 9 9 8 8 8 9 8 8 8 7 7 8 8 8 9 9
6 6 7 6 6 6 8 9 10 12 13 13 13 12 12 12 12 12 12 11 11 11 11 11 11 11 11 11 11 12 11 10 10 10 10 10 10 9 10 9 9 9 9 8 9 9 9 9 9
7 9 9 8 8 8 10 11 12 12 12 13 13 13 14 14 13 13 12 12 12 12 12 12 11 11 10 11 11 12 10 10 10 10 11 11 11 10 11 10 10 10 10 9 9 10 10 10 10
10 10 10 10 10 10 9 12 12 13 14 14 14 14 14 15 15 14 13 13 13 13 12 12 12 12 12 12 12 12 12 12 11 12 12 11 11 11 11 12 12 11 11 11 11 12 11 11 12
11 10 10 10 10 10 11 13 12 13 13 15 15 14 14 14 15 15 14 14 14 14 13 13 13 13 12 13 13 12 12 12 12 12 12 12 12 12 12 13 12 12 12 12 12 12 12 13 13
11 10 10 10 10 13 12 13 14 14 14 16 17 15 15 14 15 15 15 15 15 15 14 14 14 13 13 14 14 14 13 14 14 14 14 13 13 13 14 14 14 14 13 13 13 13 13 14 14
12 10 11 12 13 14 11 13 16 16 16 17 18 15 15 16 16 16 16 16 16 15 15 14 14 14 14 15 14 14 14 14 15 15 15 14 14 14 14 14 15 15 15 15 15 14 15 16 16
13 12 13 14 14 13 10 14 17 17 17 17 18 18 18 18 18 18 18 17 16 16 15 15 15 14 14 15 15 15 14 15 15 15 15 14 14 14 14 15 15 16 16 16 16 16 17 17 18
15 14 14 15 14 13 14 16 17 17 19 19 19 19 20 20 20 20 19 18 17 17 16 16 16 15 16 15 16 16 16 16 16 15 15 15 15 15 15 16 17 17 17 18 18 19 19 19 19
16 15 16 15 15 14 16 18 19 19 20 21 21 21 21 21 21 20 20 19 19 18 17 17 17 17 17 16 16 17 17 17 17 16 16 16 16 16 16 17 18 18 18 19 20 21 21 21 21
17 17 17 17 16 16 18 19 20 20 20 22 23 22 22 22 21 20 20 20 19 19 18 18 18 18 17 17 18 18 18 18 18 18 18 18 18 18 17 17 18 19 19 19 20 20 21 22 22
17 18 18 19 19 18 19 22 21 20 20 21 23 23 23 22 22 21 21 20 19 19 19 18 18 18 18 18 19 19 19 19 19 19 19 19 19 18 18 18 19 19 19 20 20 20 21 22 22
Wind_Direction
84 88 89 85 72 67 68 64 68 69 66 65 69 71 65 63 63 61 61 59 58 63 64 65 76 96 101 98 105 112 114 120 124 126 133 140 145 148 151 147 141 139 143 148 151 159 154 159 156
85 88 87 78 71 63 60 59 61 64 54 53 57 57 57 60 58 56 54 51 48 46 51 56 61 72 90 96 105 117 119 127 127 127 133 144 154 149 144 141 138 135 138 144 151 165 170 173 169
88 84 78 72 64 60 58 51 51 52 45 43 50 51 50 52 53 49 48 47 46 39 44 53 50 53 66 80 98 111 140 137 136 137 130 140 143 142 137 136 136 138 143 147 161 171 179 181 177
89 82 73 68 59 56 55 51 46 47 42 44 47 52 48 49 48 45 44 44 44 44 46 49 46 47 52 56 73 111 130 142 139 130 132 145 151 159 147 138 141 135 154 183 182 190 194 191 185
84 79 73 60 54 46 51 49 40 40 40 38 42 44 43 44 44 40 38 42 44 43 43 42 39 38 43 51 76 98 105 128 126 114 127 147 146 153 154 147 139 129 131 148 187 206 196 193 191
75 71 68 56 54 47 44 41 33 31 34 29 33 40 38 39 39 36 36 35 37 34 30 27 32 34 37 45 55 47 56 79 92 95 124 139 154 153 151 168 144 141 167 137 167 156 170 191 193
75 74 63 52 50 52 46 47 36 24 26 23 28 34 29 32 36 35 34 33 31 25 26 32 27 29 25 22 17 15 25 46 51 54 121 149 158 172 165 164 197 202 222 187 174 155 143 128 177
78 78 68 54 38 46 38 33 29 23 24 23 22 28 21 22 27 27 27 27 24 18 14 15 12 14 22 25 16 19 16 26 25 21 38 222 187 186 358 345 295 256 235 170 153 171 182 187 204
71 70 59 50 35 35 31 25 22 20 24 24 20 20 16 17 19 20 17 13 14 14 14 11 6 3 7 16 17 9 3 350 351 352 343 343 202 335 318 347 5 65 205 215 206 179 177 191 208
66 61 46 43 36 29 29 26 23 17 11 18 17 16 14 13 13 13 11 9 6 4 5 9 8 6 3 2 359 346 336 328 313 321 326 326 306 312 322 343 3 43 14 263 228 200 178 273 286
51 57 43 39 33 30 29 29 20 14 8 10 10 13 12 9 8 10 9 6 360 359 2 4 4 7 7 0 354 342 332 332 326 323 324 336 325 311 314 312 318 319 322 309 265 229 238 305 293
53 48 40 35 29 28 26 24 21 14 7 10 9 9 10 5 4 4 4 360 358 1 2 359 357 359 2 1 354 346 339 336 335 338 327 319 324 314 318 310 305 309 314 312 295 266 261 280 294
51 43 40 30 31 26 22 18 15 14 12 10 10 6 7 2 358 1 360 357 357 354 352 355 359 356 355 353 347 345 345 342 341 344 329 327 323 318 310 300 296 301 311 312 300 289 286 286 293
62 60 51 35 21 18 18 16 13 11 4 3 3 3 360 357 354 354 354 357 356 355 351 353 352 349 347 347 345 342 340 340 339 337 331 325 319 316 312 304 297 296 301 300 295 292 287 282 288
36 47 56 18 10 8 15 0 7 12 2 2 1 358 356 352 351 350 348 350 356 356 355 353 348 343 340 340 340 338 337 335 333 331 326 319 316 318 315 309 305 304 304 298 298 293 291 284 284
23 3 21 9 353 4 17 359 359 5 357 359 360 357 355 352 349 349 346 344 350 350 349 348 344 342 338 334 332 330 332 338 334 333 328 322 313 313 313 305 304 304 303 304 303 297 292 286 285
32 320 338 344 349 354 356 348 1 357 353 350 351 353 355 354 354 349 343 340 345 345 343 341 338 337 336 332 330 328 328 327 326 327 327 324 318 314 312 302 296 299 299 299 299 300 295 288 288
357 296 312 326 333 332 334 339 347 348 344 342 345 348 353 351 351 348 341 338 338 338 338 339 335 330 327 325 323 321 320 318 318 317 317 318 315 310 310 307 299 298 298 298 297 296 296 294 292
296 275 286 297 306 315 321 324 336 338 339 339 342 344 344 342 341 340 337 337 335 331 333 334 334 329 323 321 317 315 312 310 310 308 308 309 309 305 304 303 302 299 297 298 297 296 298 303 301
267 266 267 274 283 295 303 312 318 328 334 342 342 341 341 337 336 337 336 333 331 328 327 327 327 323 318 317 315 312 307 301 299 299 300 301 301 299 296 295 299 299 297 296 296 298 298 302 303
258 266 270 279 289 298 308 314 317 322 330 339 338 339 339 337 334 332 332 331 328 324 322 320 323 321 317 315 314 314 306 301 300 297 297 297 297 296 294 292 293 294 294 294 295 296 295 298 299
256 262 272 275 282 284 294 295 300 308 317 327 331 331 332 333 331 330 330 328 326 322 320 316 315 316 315 314 312 310 306 301 301 301 297 296 295 295 293 291 291 290 290 289 289 293 294 295 297
252 256 264 270 273 279 281 285 299 303 309 314 319 321 324 325 327 327 325 324 322 321 318 316 313 311 310 311 309 306 304 302 301 298 294 292 290 291 291 289 286 287 289 289 289 290 291 293 294
252 264 269 270 268 264 268 279 292 293 295 305 310 313 320 323 324 323 322 320 319 318 316 312 312 309 309 312 310 305 302 299 297 295 293 290 289 288 286 287 285 283 286 288 287 288 291 292 293
252 261 271 274 277 274 270 276 278 285 294 298 302 308 315 318 319 320 320 319 317 316 315 313 312 308 305 306 306 304 302 301 299 295 294 292 287 287 287 285 286 285 285 286 287 288 291 292 294
250 253 258 266 275 282 280 274 278 285 295 297 300 307 310 312 313 315 317 318 317 314 311 310 311 309 305 303 304 303 302 303 301 298 296 295 290 287 287 286 285 283 283 285 286 286 288 290 291
250 250 256 265 271 276 265 265 267 279 290 295 299 301 304 307 310 312 314 313 312 312 308 305 304 304 302 301 302 304 304 303 301 298 297 295 293 289 285 284 285 284 284 284 284 286 289 288 289
250 252 252 253 259 264 270 277 281 283 292 295 298 301 303 305 307 309 309 308 308 308 306 303 301 299 298 298 298 300 301 301 301 299 296 294 293 291 288 284 285 284 284 284 285 287 288 288 289
254 254 254 256 254 255 266 274 279 282 288 292 297 299 302 303 305 306 307 306 305 306 304 303 301 299 298 298 297 298 299 300 301 301 297 294 292 292 291 290 287 285 284 284 286 287 288 288 288
253 255 255 257 257 255 262 269 276 281 286 290 294 296 298 301 303 303 305 304 303 303 303 301 300 298 297 297 296 297 297 298 299 299 297 295 293 291 290 289 289 289 288 287 287 290 289 289 288
Height
5889 5889 5889 5889 5889 5890 5889 5889 5888 5887 5886 5885 5884 5883 5882 5882 5882 5884 5881 5879 5880 5879 5879 5879 5879 5879 5879 5879 5879 5879 5879 5879 5879 5880 5881 5881 5881 5882 5883 5884 5884 5885 5885 5886 5886 5886 5887 5887 5888
5892 5892 5891 5890 5891 5892 5892 5891 5890 5889 5888 5887 5885 5884 5884 5883 5883 5882 5881 5881 5881 5881 5880 5880 5880 5880 5880 5880 5880 5880 5880 5880 5880 5881 5882 5882 5883 5883 5883 5884 5885 5885 5885 5886 5887 5887 5887 5888 5888
5894 5893 5892 5893 5895 5894 5894 5893 5892 5891 5890 5888 5887 5887 5886 5885 5884 5884 5883 5883 5883 5882 5882 5882 5881 5881 5881 5881 5881 5881 5881 5881 5882 5882 5882 5883 5884 5884 5885 5885 5885 5885 5886 5887 5887 5887 5888 5888 5889
5895 5895 5895 5897 5898 5897 5896 5895 5894 5893 5892 5890 5889 5889 5887 5887 5886 5885 5885 5884 5884 5883 5883 5883 5883 5882 5882 5882 5882 5882 5882 5882 5883 5883 5883 5884 5884 5885 5885 5886 5886 5886 5886 5887 5887 5887 5887 5888 5888
5896 5895 5897 5899 5900 5899 5898 5897 5896 5895 5894 5893 5892 5891 5889 5889 5888 5887 5886 5886 5885 5885 5884 5884 5884 5883 5883 5883 5883 5883 5883 5883 5883 5884 5884 5885 5885 5885 5886 5886 5886 5886 5886 5886 5887 5887 5887 5888 5889
5897 5897 5901 5902 5902 5901 5900 5899 5898 5897 5896 5894 5894 5893 5891 5891 5889 5889 5888 5887 5887 5886 5886 5885 5885 5885 5884 5884 5884 5884 5884 5884 5884 5885 5885 5885 5886 5886 5886 5887 5887 5887 5887 5887 5887 5887 5887 5888 5889
5901 5901 5903 5905 5904 5903 5903 5901 5900 5899 5897 5896 5896 5895 5893 5892 5891 5890 5890 5889 5888 5887 5887 5886 5886 5886 5885 5885 5885 5885 5885 5885 5885 5885 5886 5886 5886 5887 5887 5887 5887 5887 5887 5887 5887 5887 5888 5888 5889
5905 5907 5906 5907 5906 5905 5904 5903 5902 5901 5899 5898 5897 5896 5895 5894 5893 5892 5891 5890 5889 5889 5888 5887 5887 5886 5886 5886 5886 5886 5886 5886 5886 5886 5887 5887 5887 5887 5887 5887 5887 5887 5887 5887 5888 5888 5888 5889 5889
5908 5910 5908 5909 5908 5907 5906 5905 5904 5902 5901 5900 5899 5898 5897 5895 5894 5893 5892 5892 5891 5890 5889 5888 5887 5887 5887 5887 5887 5887 5887 5887 5887 5887 5887 5887 5887 5888 5888 5888 5887 5887 5887 5888 5888 5888 5889 5889 5889
5911 5912 5911 5911 5910 5909 5907 5906 5905 5904 5902 5901 5900 5899 5898 5896 5895 5894 5893 5893 5892 5891 5890 5889 5889 5888 5888 5887 5888 5888 5888 5887 5887 5887 5887 5888 5888 5888 5888 5888 5888 5887 5888 5888 5889 5889 5889 5889 5890
5913 5914 5913 5912 5911 5910 5909 5908 5906 5905 5904 5903 5901 5900 5899 5898 5897 5896 5895 5894 5893 5892 5891 5890 5890 5889 5889 5888 5888 5888 5888 5888 5888 5888 5888 5888 5888 5888 5888 5888 5888 5888 5888 5889 5889 5889 5889 5890 5890
5916 5915 5915 5913 5912 5911 5910 5910 5908 5907 5905 5904 5902 5901 5901 5899 5898 5897 5896 5894 5894 5893 5892 5891 5891 5890 5890 5889 5889 5888 5888 5888 5888 5888 5888 5888 5888 5888 5888 5888 5888 5888 5888 5889 5889 5889 5890 5890 5890
5917 5916 5916 5915 5914 5913 5912 5911 5910 5908 5907 5905 5904 5903 5902 5900 5899 5898 5896 5895 5895 5894 5893 5892 5892 5891 5890 5890 5890 5889 5889 5888 5888 5888 5888 5888 5888 5888 5888 5888 5888 5888 5888 5888 5889 5889 5889 5890 5889
5917 5916 5917 5916 5916 5915 5914 5912 5910 5909 5908 5907 5905 5904 5902 5901 5900 5899 5897 5896 5895 5894 5894 5893 5892 5892 5891 5891 5890 5890 5889 5889 5888 5888 5888 5889 5888 5888 5888 5888 5888 5888 5888 5888 5888 5888 5889 5889 5889
5917 5917 5917 5918 5917 5916 5915 5913 5911 5910 5909 5907 5906 5905 5903 5902 5901 5899 5898 5897 5896 5895 5894 5893 5893 5892 5891 5891 5891 5890 5890 5889 5889 5888 5888 5888 5888 5888 5888 5888 5888 5888 5888 5888 5888 5888 5888 5888 5888
5917 5917 5917 5918 5918 5917 5917 5915 5913 5910 5910 5908 5907 5906 5904 5902 5900 5899 5898 5897 5896 5895 5894 5893 5892 5892 5891 5891 5890 5890 5890 5889 5889 5888 5888 5888 5888 5887 5887 5887 5887 5887 5887 5888 5887 5887 5887 5887 5887
5918 5919 5919 5919 5919 5918 5917 5915 5913 5912 5911 5909 5908 5906 5904 5902 5901 5900 5898 5897 5896 5895 5894 5893 5892 5892 5891 5890 5890 5889 5889 5889 5888 5888 5888 5887 5887 5887 5887 5887 5887 5887 5887 5887 5887 5887 5886 5886 5886
5920 5921 5920 5920 5920 5919 5918 5916 5914 5913 5912 5910 5907 5906 5905 5903 5901 5900 5898 5897 5896 5895 5894 5893 5892 5891 5891 5890 5889 5889 5888 5888 5887 5887 5887 5886 5886 5886 5886 5886 5886 5886 5886 5886 5885 5885 5885 5884 5884
5921 5921 5921 5921 5920 5919 5918 5917 5915 5913 5912 5910 5908 5906 5905 5903 5902 5900 5898 5897 5896 5895 5894 5893 5892 5891 5890 5889 5888 5888 5887 5887 5886 5886 5886 5885 5885 5885 5885 5885 5884 5884 5884 5884 5884 5883 5883 5883 5882
5921 5922 5921 5921 5920 5918 5917 5917 5915 5914 5912 5910 5908 5906 5905 5903 5901 5900 5898 5897 5895 5894 5893 5892 5891 5890 5889 5888 5887 5886 5886 5885 5885 5885 5884 5884 5884 5883 5883 5883 5883 5883 5882 5882 5882 5882 5881 5881 5880
5920 5921 5920 5920 5919 5917 5916 5916 5914 5913 5911 5910 5908 5906 5904 5902 5901 5899 5897 5896 5894 5893 5892 5891 5890 5889 5888 5887 5886 5885 5884 5884 5883 5883 5882 5882 5882 5881 5881 5881 5881 5880 5880 5880 5880 5880 5879 5879 5878
5918 5919 5918 5918 5918 5916 5916 5914 5913 5911 5911 5909 5908 5906 5904 5902 5900 5898 5896 5895 5893 5892 5890 5889 5888 5887 5886 5886 5885 5884 5883 5882 5882 5881 5880 5880 5880 5879 5879 5879 5879 5878 5878 5878 5878 5877 5877 5877 5876
5916 5916 5916 5916 5915 5915 5914 5913 5911 5909 5909 5908 5906 5904 5903 5901 5899 5897 5895 5893 5892 5890 5889 5888 5887 5886 5885 5884 5883 5882 5881 5880 5879 5879 5878 5878 5877 5877 5876 5876 5876 5875 5875 5875 5875 5875 5874 5874 5873
5913 5914 5914 5914 5913 5913 5913 5912 5910 5908 5908 5906 5904 5902 5901 5900 5898 5896 5894 5892 5890 5888 5887 5886 5885 5883 5883 5882 5881 5880 5879 5878 5877 5876 5876 5875 5874 5874 5874 5873 5872 5872 5872 5872 5872 5871 5871 5870 5870
5912 5912 5913 5912 5912 5911 5911 5911 5909 5906 5905 5905 5903 5900 5899 5898 5896 5894 5892 5890 5888 5886 5885 5883 5882 5881 5880 5879 5878 5877 5876 5875 5874 5873 5873 5872 5871 5871 5870 5870 5869 5869 5868 5868 5868 5868 5867 5867 5866
5908 5910 5911 5911 5910 5909 5909 5908 5907 5903 5902 5902 5901 5899 5897 5895 5894 5892 5890 5887 5886 5884 5882 5881 5879 5878 5877 5876 5875 5874 5873 5872 5871 5870 5869 5868 5868 5867 5867 5866 5866 5865 5864 5864 5864 5864 5863 5863 5862
5904 5905 5907 5908 5907 5907 5906 5904 5903 5900 5900 5900 5898 5897 5894 5893 5891 5889 5887 5884 5882 5881 5879 5878 5876 5875 5874 5873 5872 5871 5870 5869 5867 5866 5865 5865 5864 5863 5863 5862 5862 5861 5860 5860 5859 5859 5858 5858 5857
5901 5902 5903 5903 5903 5904 5903 5900 5898 5898 5897 5896 5894 5893 5891 5889 5888 5885 5883 5881 5879 5877 5876 5874 5873 5872 5871 5870 5869 5867 5866 5865 5863 5862 5861 5861 5860 5859 5858 5858 5857 5857 5856 5855 5854 5854 5853 5853 5852
5898 5898 5897 5898 5899 5901 5900 5899 5895 5893 5893 5892 5890 5889 5887 5885 5883 5881 5879 5877 5876 5874 5872 5871 5869 5868 5867 5866 5864 5863 5862 5861 5859 5858 5857 5856 5856 5855 5854 5853 5853 5852 5851 5850 5849 5849 5848 5847 5847
5892 5893 5894 5894 5894 5895 5895 5894 5891 5890 5888 5888 5886 5885 5883 5881 5879 5877 5875 5873 5872 5870 5868 5867 5865 5864 5863 5861 5860 5859 5858 5856 5855 5854 5853 5852 5851 5850 5849 5849 5848 5846 5846 5845 5844 5843 5842 5841 5841